Terminal Aerodrome Forecast
Issued by NWS

Home | Current Version | Previous Version | Text Only | Print | Product List | Glossary On
Versions: 1 2 3 4 5 6 7 8 9 10 11 12 13 14 15 16 17 18 19 20 21 22 23 24 25 26 27 28 29 30 31 32 33 34 35 36 37 38 39 40 41 42 43 44 45 46 47 48 49 50
456
FTUS41 KCTP 302137 AAB
TAFAOO
TAF AMD
KAOO 302137Z 3022/3118 13012KT P6SM VCSH BKN035 OVC060
      WS020/17035KT
     FM310200 14010KT 3SM BR VCSH OVC015 WS020/18035KT
     FM310900 15010KT 1SM -RA BR OVC007 WS020/20042KT PROB30
      3112/3118 3SM -TSRA OVC012CB=

USA.gov is the U.S. government's official web portal to all federal, state and local government web resources and services.